www.pogodaiklimat.ru

Погода и климат >> Архив погоды >> Россия >> Якутия >> Усть-Мома


АРХИВ ПОГОДЫ в Усть-Моме

Время (UTC), дата Ветер
(напр.,м/с)
 
Видим.   Явления Облачность Т
(С)
Тd
(С)
f
(%)
Тe
(С)
Тes
(С)
Комфортность P
(гПа)
Po
(гПа)
Тmin
(С)
Tmax
(С)
R
(мм)
R24
(мм)
S
(см)
21 11.02 штиль 0 2000 м дымка ясно -48.2 -50.6 76 -48 -48 опасность
обморожения
1023.0 993.0 -48.2 20
00 12.02 штиль 0 4000 м дымка 3/0
[Ci fib]
-48.3 -50.6 77 -48 -48 опасность
обморожения
1023.4 993.4 -48.8
03 12.02 штиль 0 50 км 3/0
[Ci fib]
-41.2 -43.2 81 -41 -40 опасность
обморожения
1022.2 993.1
06 12.02 штиль 0 50 км 3/0
[Ci fib]
-40.9 -43.8 73 -41 -41 опасность
обморожения
1022.5 993.4
09 12.02 штиль 0 2000 м дымка 3/0
[Ci fib]
-45.2 -47.8 75 -45 -45 опасность
обморожения
1023.8 994.2 -40.9
12 12.02 штиль 0 4000 м дымка 1/0
[Ci fib]
-46.9 -49.0 79 -47 -47 опасность
обморожения
1024.5 994.6
15 12.02 штиль 0 4000 м дымка 1/0
[Ci fib]
-47.8 -50.0 78 -48 -48 опасность
обморожения
1024.8 994.8
18 12.02 штиль 0 4000 м дымка 1/0
[Ci fib]
-48.7 -51.2 75 -49 -49 опасность
обморожения
1025.1 995.0
21 12.02 штиль 0 4000 м дымка 3/0
[Ci fib]
-49.4 -51.2 81 -49 -49 опасность
обморожения
1025.2 995.1 -49.4 20
00 13.02 штиль 0 4000 м дымка ясно -48.9 -51.8 71 -49 -49 опасность
обморожения
1025.8 995.7
03 13.02 штиль 0 50 км 3/0
[Ci fib]
-40.6 -42.7 80 -41 -40 опасность
обморожения
1024.0 994.9
06 13.02 штиль 0 50 км 3/0
[Ci fib]
-40.1 -42.8 75 -40 -40 опасность
обморожения
1022.9 994.0
09 13.02 штиль 0 4000 м дымка 1/0
[Ci fib]
-44.9 -47.8 72 -45 -45 опасность
обморожения
1024.1 994.5 -40.1
12 13.02 штиль 0 4000 м дымка 1/0
[Ci fib]
-47.2 -49.6 76 -47 -47 опасность
обморожения
1024.3 994.4
15 13.02 штиль 0 4000 м дымка 1/0
[Ci fib]
-47.6 -54.6 44 -48 -48 опасность
обморожения
1023.9 993.9
18 13.02 штиль 0 4000 м дымка 1/0
[Ci fib]
-48.4 -50.0 83 -48 -48 опасность
обморожения
1022.8 992.8
21 13.02 штиль 0 4000 м дымка 1/0
[Ci fib]
-49.4 -51.8 76 -49 -49 опасность
обморожения
1022.7 992.6 -49.4 20
00 14.02 штиль 0 4000 м дымка 1/0
[Ci fib]
-49.2 -51.8 74 -49 -49 опасность
обморожения
1022.2 992.2 -49.5
03 14.02 штиль 0 4000 м дымка 3/0
[Ci fib]
-43.9 -45.7 82 -44 -43 опасность
обморожения
1020.1 990.8
06 14.02 штиль 0 4000 м дымка 3/0
[Ci fib]
-41.2 -43.2 81 -41 -41 опасность
обморожения
1018.8 989.9
09 14.02 штиль 0 4000 м дымка 3/0
[Ci fib]
-45.3 -47.8 76 -45 -45 опасность
обморожения
1019.1 989.7 -41.2
12 14.02 штиль 0 1000 м дымка ясно -47.3 -49.6 77 -47 -47 опасность
обморожения
1019.1 989.4
15 14.02 штиль 0 1000 м дымка ясно -49.0 -51.8 72 -49 -49 опасность
обморожения
1018.4 988.4
18 14.02 штиль 0 1000 м дымка ясно -50.3 -53.1 72 -50 -50 опасность
обморожения
1017.3 987.3
21 14.02 штиль 0 2000 м дымка ясно -50.7 -53.1 75 -51 -51 опасность
обморожения
1016.1 986.0 -50.7 20
00 15.02 штиль 0 4000 м дымка ясно -50.3 -52.5 77 -50 -50 опасность
обморожения
1015.1 985.1
03 15.02 штиль 0 4000 м дымка ясно -43.3 -45.7 77 -43 -42 опасность
обморожения
1011.4 982.5
06 15.02 штиль 0 10 км дымка ясно -40.3 -42.7 78 -40 -40 опасность
обморожения
1009.4 980.9
09 15.02 штиль 0 4000 м дымка ясно -45.6 -48.1 76 -46 -46 опасность
обморожения
1009.4 980.1 -40.3
12 15.02 штиль 0 2000 м дымка ясно -47.5 -50.6 70 -48 -48 опасность
обморожения
1009.3 979.8
15 15.02 штиль 0 4000 м дымка ясно -48.6 -51.8 69 -49 -49 опасность
обморожения
1008.7 979.0
18 15.02 штиль 0 4000 м дымка ясно -49.9 -53.1 69 -50 -50 опасность
обморожения
1008.1 978.3
21 15.02 штиль 0 4000 м дымка 3/0
[Ci fib]
-50.2 -53.1 71 -50 -50 опасность
обморожения
1007.6 977.8 -50.2 20
00 16.02 штиль 0 1000 м дымка 3/0
[Ci fib]
-49.4 -51.8 76 -49 -49 опасность
обморожения
1006.8 977.3 -50.5
03 16.02 штиль 0 4000 м дымка 1/0
[Ci fib]
-40.9 -43.8 73 -41 -40 опасность
обморожения
1004.9 976.4
06 16.02 штиль 0 4000 м дымка 1/0
[Ci fib]
-39.7 -41.7 81 -40 -40 опасность
обморожения
1004.8 975.9
09 16.02 штиль 0 4000 м дымка 1/0
[Ci fib]
-44.4 -46.4 80 -44 -44 опасность
обморожения
1005.9 977.0 -39.7
12 16.02 штиль 0 1000 м дымка ясно -46.9 -49.6 74 -47 -47 опасность
обморожения
1007.4 978.0
15 16.02 штиль 0 1000 м дымка ясно -49.2 -51.8 74 -49 -49 опасность
обморожения
1008.2 978.5
18 16.02 штиль 0 1000 м дымка ясно -50.0 -53.1 70 -50 -50 опасность
обморожения
1009.4 979.6
21 16.02 штиль 0 4000 м дымка ясно -50.0 -53.1 70 -50 -50 опасность
обморожения
1010.9 981.1 -50.1 20
00 17.02 штиль 0 10 км дымка ясно -49.8 -51.8 79 -50 -49 опасность
обморожения
1012.4 982.6
03 17.02 штиль 0 20 км ясно -40.3 -43.3 73 -40 -39 опасность
обморожения
1011.5 982.8
06 17.02 штиль 0 50 км ясно -37.6 -40.5 74 -38 -38 опасность
обморожения
1011.9 983.5
09 17.02 штиль 0 50 км ясно -44.0 -47.0 72 -44 -44 опасность
обморожения
1013.9 984.7 -37.6
12 17.02 штиль 0 4000 м дымка ясно -46.2 -48.6 76 -46 -46 опасность
обморожения
1014.9 985.5
15 17.02 штиль 0 4000 м дымка ясно -47.5 -50.6 70 -48 -48 опасность
обморожения
1015.6 985.9
18 17.02 штиль 0 4000 м дымка ясно -48.7 -51.8 70 -49 -49 опасность
обморожения
1016.1 986.3
21 17.02 штиль 0 4000 м дымка ясно -49.5 -51.8 77 -50 -50 опасность
обморожения
1017.0 987.0 -49.5 20
00 18.02 штиль 0 1000 м дымка ясно -47.9 -50.6 73 -48 -47 опасность
обморожения
1017.6 987.8
03 18.02 штиль 0 20 км ясно -40.1 -42.2 80 -40 -39 опасность
обморожения
1016.8 988.0
06 18.02 штиль 0 50 км ясно -37.2 -40.1 74 -37 -37 опасность
обморожения
1017.0 988.6
09 18.02 штиль 0 4000 м дымка ясно -42.7 -45.6 73 -43 -43 опасность
обморожения
1019.4 990.2 -37.2
12 18.02 штиль 0 4000 м дымка ясно -45.0 -47.8 73 -45 -45 опасность
обморожения
1021.1 991.7
15 18.02 штиль 0 4000 м дымка ясно -46.3 -48.6 77 -46 -46 опасность
обморожения
1022.2 992.5
18 18.02 штиль 0 4000 м дымка ясно -46.6 -49.6 71 -47 -47 опасность
обморожения
1023.1 993.2

 

Местоположение метеостанции Усть-Мома (Якутия, Россия): широта 66.45 долгота 143.20 высота над уровнем моря 196 м.

В архиве по умолчанию представлена погода в Усть-Моме за последнюю неделю. Архивные данные за месяц целиком и за предыдущие месяцы, начиная с января 2011 года, Вы можете получить, выбрав интересующий диапазон дат из раскрывающегося списка и нажав кнопку "Ввод!".


*Определитесь, кто Вы:
робот инопланетянин человек

Внимание! Время в таблицах - всемирное. Для получения местного времени необходимо прибавить поправку, которая равна 11 ч.

Смотрите также архив погоды в соседних городах и на ближайших метеорологических станциях:

Погода в Усть-Нере (Якутия, Россия) (214 км)
Погода в Белой Горе (Якутия, Россия) (266 км)
Погода в Юртах (Якутия, Россия) (275 км)
Погода в Усть-Чарках (Якутия, Россия) (294 км)
Погода в Делянкире (Якутия, Россия) (312 км)
Погода в Агаякане (Якутия, Россия) (354 км)
Погода в Депутатском (Якутия, Россия) (355 км)
Погода в Оймяконе (Якутия, Россия) (356 км)
Погода в Зырянке (Якутия, Россия) (356 км)
Погода в Иэме (Якутия, Россия) (360 км)

Пояснения к столбцам:

Ветер - указаны скорость ветра в м/с - средняя за 10 мин, порывы в срок и между сроками (в фигурных скобках) и направление, откуда дует ветер: С - северный, СВ - северо-восточный, В - восточный, ЮВ - юго-восточный, Ю - южный, ЮЗ - юго-западный, З - западный, СЗ - северо-западный.
Видимость - горизонтальная дальность видимости в метрах или километрах. При видимости от 1 до 10 км при отсутствии осадков обычно наблюдается дымка, при ухудшении видимости до 1 км и менее - туман. В сухую погоду видимость может ухудшаться дымом, пылью или мглою.
Явления - указаны атмосферные явления, наблюдавшиеся в срок или в последний час перед сроком; фигурными скобками обозначены явления, наблюдавшиеся между сроками (за 1-3 часа до срока); квадратными скобками обозначены град или гололедные отложения с указанием их диаметра в мм.
Облачность - указаны через наклонную черту общая и нижняя облачность в баллах и высота нижней границы облаков в метрах; квадратными скобками обозначены формы облаков: Ci - перистые, Cs - перисто-слоистые, Cc - перисто-кучевые, Ac - высококучевые, As - высокослоистые, Sc - слоисто-кучевые, Ns - слоисто-дождевые, Cu - кучевые, Cb - кучево-дождевые. Подробнее классификацию облаков см. в Атласе облаков (PDF).
T - Температура воздуха - температура, измеренная на высоте 2 м над землей.
Td - Температура точки росы - температура, при понижении до которой содержащийся в воздухе водяной пар достигнет насыщения.
f - Относительная влажность воздуха - влажноcть воздуха, измеренная на высоте 2 м над землей.
Te - Эффективная температура - температура, которую ощущает одетый по сезону человек в тени. Характеристика душности погоды. При расчете учитывается влияние влажности воздуха и скорости ветра на теплоощущения человека.
Tes - Эффективная температура на солнце - температура, которую ощущает человек, с поправкой на солнечный нагрев. Характеристика знойности погоды. Зависит от высоты солнца над горизонтом, облачности и скорости ветра. Ночью, в пасмурную погоду, а также при ветре 12 м/с и более поправка равна нулю.
P - Атмосферное давление - приведенное к уровню моря атмосферное давление.
Po - Атмосферное давление - измеренное на уровне метеостанции атмосферное давление.
Tmin - Минимальная температура - минимум температуры воздуха на высоте 2 м над землей.
Tmax - Максимальная температура - максимум температуры воздуха на высоте 2 м над землей.
R - Количество осадков - Количество выпавших осадков за период времени, мм. При наведении курсора мыши на число - период времени, за который выпало указанное количество осадков.
R24 - Количество осадков - Количество выпавших осадков за 24 часа, мм.
S - Снежный покров - Высота снежного покрова, см. При наведении курсора мыши на число - состояние снежного покрова и степень покрытия местности в баллах.